Tracking 29932 objects as of 4-Dec-2024
HD Live streaming from Space Station
objects crossing your sky now

STARLINK-31226

Track STARLINK-31226 now!
10-day predictions
STARLINK-31226 is classified as:


NORAD ID: 58858
Int'l Code: 2024-019F
Perigee: 494.0 km
Apogee: 496.4 km
Inclination: 43.0 °
Period: 94.4 minutes
Semi major axis: 6866 km
RCS: Unknown
Launch date: January 29, 2024
Source: United States (US)
Launch site: AIR FORCE EASTERN TEST RANGE (AFETR)
Your satellite tracking list
Your tracking list is empty




NASA's NSSDC Master Catalog

Two Line Element Set (TLE):
1 58858U 24019F   24338.67430966  .00002899  00000-0  12063-3 0  9994
2 58858  43.0034 329.2549 0001741 288.9500  71.1162 15.25913230 48617
Source of the keplerian elements: AFSPC